Date String (YYYY-MM-DD hh:mm:ss) UTC,Instrument flags,Ambient pressure (hPa),Sample flow (lpm),Bypass flow (lpm),Sample temperature (°C),Ambient temperature (°C),ASC tube jacket temperature (°C),LED temperature (°C),Box temperature (°C),Sample RH (%),Span deviation,Mass concentration (μg/m³),Mass concentration (μg/m³),Mass concentration (μg/m³)
DateTimeUTC,F1_M11,P_M11,Q1_M11,Q2_M11,T1_M11,T2_M11,T3_M11,T4_M11,T5_M11,U1_M11,ZSPAN_M11,X0_M11,X2_M11,X1_M11
2022-02-04 11:00:00,,0833.0,5.01,0.00,21.7,22.4,00.0,30.7,23.4,05.0,0000.0,0006.11,0003.27,0003.04
2022-02-04 11:01:00,,0833.0,5.00,0.00,21.9,23.0,00.0,30.8,23.7,04.9,0000.0,0006.08,0003.24,0003.01
2022-02-04 11:02:00,,0833.0,5.00,0.00,22.0,22.8,00.0,30.8,23.7,04.9,0000.0,0005.97,0003.21,0002.97
2022-02-04 11:03:00,,0833.1,4.99,0.00,21.9,22.3,00.0,30.8,23.5,04.9,0000.0,0006.03,0003.22,0002.95
2022-02-04 11:04:00,,0833.0,5.01,0.00,21.8,21.9,00.0,30.8,23.3,04.9,0000.0,0006.05,0003.21,0002.93
2022-02-04 11:05:00,,0833.1,5.00,0.00,21.7,21.5,00.0,30.8,23.2,05.0,0000.0,0005.78,0003.21,0002.94
2022-02-04 11:06:00,,0833.1,4.98,0.00,21.6,21.2,00.0,30.7,23.0,05.0,0000.0,0004.80,0003.19,0002.92
2022-02-04 11:07:00,,0833.1,5.01,0.00,21.5,21.0,00.0,30.7,22.9,05.0,0000.0,0004.83,0003.20,0002.92
2022-02-04 11:08:00,,0833.1,5.00,0.00,21.6,21.4,00.0,30.7,23.1,05.0,0000.0,0004.84,0003.19,0002.90
2022-02-04 11:09:00,,0833.0,5.00,0.00,21.7,22.1,00.0,30.7,23.3,05.0,0000.0,0004.69,0003.15,0002.87
2022-02-04 11:10:00,,0833.1,4.99,0.00,21.9,22.7,00.0,30.8,23.6,04.9,0000.0,0004.18,0003.11,0002.85
2022-02-04 11:11:00,,0833.1,5.00,0.00,22.0,23.0,00.0,30.8,23.8,04.9,0000.0,0003.82,0003.04,0002.80
2022-02-04 11:12:00,,0833.1,5.00,0.00,22.0,22.5,00.0,30.8,23.7,04.9,0000.0,0003.78,0003.01,0002.76
2022-02-04 11:13:00,,0833.0,5.00,0.00,21.9,22.0,00.0,30.8,23.4,04.9,0000.0,0003.80,0003.02,0002.75
2022-02-04 11:14:00,,0833.1,5.00,0.00,21.7,21.5,00.0,30.8,23.1,05.0,0000.0,0003.63,0002.96,0002.72
2022-02-04 11:15:00,,0833.1,5.00,0.00,21.6,21.0,00.0,30.8,22.8,05.0,0000.0,0003.51,0002.92,0002.68
2022-02-04 11:16:00,,0833.1,5.01,0.00,21.4,20.9,00.0,30.7,22.7,05.0,0000.0,0003.70,0002.88,0002.64
2022-02-04 11:17:00,,0833.1,5.00,0.00,21.5,21.5,00.0,30.7,23.0,05.0,0000.0,0003.79,0002.83,0002.58
2022-02-04 11:18:00,,0833.1,4.99,0.00,21.7,22.3,00.0,30.8,23.4,04.9,0000.0,0003.67,0002.74,0002.52
2022-02-04 11:19:00,,0833.1,5.00,0.00,21.8,22.9,00.0,30.8,23.6,04.9,0000.0,0003.63,0002.69,0002.47
2022-02-04 11:20:00,,0833.1,4.99,0.00,22.0,22.9,00.0,30.8,23.8,04.8,0000.0,0003.63,0002.67,0002.43
2022-02-04 11:21:00,,0833.1,5.00,0.00,21.9,22.4,00.0,30.8,23.6,04.8,0000.0,0003.65,0002.66,0002.40
2022-02-04 11:22:00,,0833.1,5.01,0.00,21.9,22.0,00.0,30.8,23.4,04.8,0000.0,0003.70,0002.69,0002.40
2022-02-04 11:23:00,,0833.1,5.00,0.00,21.8,21.5,00.0,30.8,23.2,04.9,0000.0,0003.68,0002.67,0002.39
2022-02-04 11:24:00,,0833.1,4.99,0.00,21.7,21.1,00.0,30.8,23.0,04.9,0000.0,0003.65,0002.63,0002.37
2022-02-04 11:25:00,,0833.1,5.01,0.00,21.5,20.8,00.0,30.7,22.8,04.9,0000.0,0003.63,0002.60,0002.34
2022-02-04 11:26:00,,0833.1,4.99,0.00,21.5,21.0,00.0,30.7,22.9,05.0,0000.0,0003.61,0002.56,0002.31
2022-02-04 11:27:00,,0833.1,4.99,0.00,21.6,21.8,00.0,30.7,23.2,04.9,0000.0,0003.53,0002.55,0002.29
2022-02-04 11:28:00,,0833.1,5.00,0.00,21.8,22.5,00.0,30.8,23.5,04.9,0000.0,0003.77,0002.54,0002.28
2022-02-04 11:29:00,,0833.2,5.02,0.00,21.9,23.0,00.0,30.8,23.8,04.8,0000.0,0004.36,0002.55,0002.28
2022-02-04 11:30:00,,0833.2,4.99,0.00,22.0,22.7,00.0,30.8,23.7,04.8,0000.0,0004.39,0002.58,0002.30
2022-02-04 11:31:00,,0833.2,5.01,0.00,21.9,22.3,00.0,30.8,23.6,04.9,0000.0,0004.37,0002.60,0002.34
2022-02-04 11:32:00,,0833.1,5.00,0.00,21.9,21.9,00.0,30.8,23.5,04.8,0000.0,0004.31,0002.56,0002.32
2022-02-04 11:33:00,,0833.1,5.00,0.00,21.8,21.6,00.0,30.8,23.4,04.8,0000.0,0004.25,0002.51,0002.30
2022-02-04 11:34:00,,0833.1,4.99,0.00,21.8,21.4,00.0,30.8,23.3,04.8,0000.0,0004.25,0002.51,0002.30
2022-02-04 11:35:00,,0833.1,5.00,0.00,21.7,21.2,00.0,30.8,23.2,04.8,0000.0,0004.26,0002.52,0002.30
2022-02-04 11:36:00,,0833.1,5.00,0.00,21.7,21.1,00.0,30.8,23.2,04.9,0000.0,0004.25,0002.53,0002.29
2022-02-04 11:37:00,,0833.1,4.99,0.00,21.8,21.8,00.0,30.8,23.4,04.9,0000.0,0004.33,0002.57,0002.30
2022-02-04 11:38:00,,0833.1,5.02,0.00,21.9,22.6,00.0,30.8,23.7,04.8,0000.0,0004.18,0002.55,0002.30
2022-02-04 11:39:00,,0833.1,5.00,0.00,22.0,23.0,00.0,30.9,23.9,04.8,0000.0,0003.85,0002.56,0002.33
2022-02-04 11:40:00,,0833.1,5.01,0.00,22.1,22.7,00.0,30.9,23.8,04.8,0000.0,0003.15,0002.60,0002.40
2022-02-04 11:41:00,,0833.1,5.00,0.00,22.0,22.3,00.0,30.9,23.7,04.9,0000.0,0003.16,0002.63,0002.44
2022-02-04 11:42:00,,0833.1,4.99,0.00,22.0,22.0,00.0,30.9,23.6,04.9,0000.0,0003.17,0002.63,0002.44
2022-02-04 11:43:00,,0833.1,5.00,0.00,21.9,21.7,00.0,30.9,23.5,04.9,0000.0,0003.24,0002.70,0002.52
2022-02-04 11:44:00,,0833.2,5.00,0.00,21.9,21.5,00.0,30.9,23.4,04.9,0000.0,0003.37,0002.77,0002.57
2022-02-04 11:45:00,,0833.2,5.00,0.00,21.8,21.3,00.0,30.9,23.3,04.9,0000.0,0003.41,0002.81,0002.59
2022-02-04 11:46:00,,0833.1,5.01,0.00,21.8,21.1,00.0,30.8,23.3,04.9,0000.0,0003.35,0002.78,0002.59
2022-02-04 11:47:00,,0833.2,5.00,0.00,21.8,21.7,00.0,30.8,23.4,04.9,0000.0,0003.35,0002.79,0002.60
2022-02-04 11:48:00,,0833.2,4.99,0.00,22.0,22.6,00.0,30.9,23.7,04.8,0000.0,0003.40,0002.74,0002.60
2022-02-04 11:49:00,,0833.2,5.00,0.00,22.1,23.1,00.0,30.9,23.9,04.8,0000.0,0003.47,0002.77,0002.62
2022-02-04 11:50:00,,0833.2,5.02,0.00,22.1,22.7,00.0,30.9,23.9,04.8,0000.0,0003.50,0002.78,0002.62
2022-02-04 11:51:00,,0833.2,4.99,0.00,22.1,22.3,00.0,31.0,23.7,04.8,0000.0,0003.45,0002.73,0002.56
2022-02-04 11:52:00,,0833.2,4.99,0.00,22.0,21.9,00.0,31.0,23.5,04.8,0000.0,0003.36,0002.65,0002.47
2022-02-04 11:53:00,,0833.2,5.00,0.00,21.9,21.6,00.0,30.9,23.4,04.8,0000.0,0003.29,0002.58,0002.38
2022-02-04 11:54:00,,0833.2,5.00,0.00,21.9,21.4,00.0,30.9,23.4,04.8,0000.0,0003.20,0002.49,0002.28
2022-02-04 11:55:00,,0833.2,5.01,0.00,21.8,21.2,00.0,30.9,23.3,04.9,0000.0,0003.06,0002.42,0002.22
2022-02-04 11:56:00,,0833.2,5.00,0.00,21.7,21.1,00.0,30.9,23.2,04.9,0000.0,0003.02,0002.37,0002.18
2022-02-04 11:57:00,,0833.2,4.99,0.00,21.8,21.8,00.0,30.9,23.4,04.9,0000.0,0003.04,0002.36,0002.15
2022-02-04 11:58:00,,0833.3,5.01,0.00,21.9,22.4,00.0,30.9,23.7,04.9,0000.0,0003.14,0002.34,0002.11
2022-02-04 11:59:00,,0833.3,5.00,0.00,22.1,23.0,00.0,31.0,23.9,04.8,0000.0,0004.18,0002.30,0002.07
